Year,Month,Day,Hour,Minute,Value (Times are PST for temperature in C)
2020,10,03,00,00,14.30
2020,10,03,00,01,14.30
2020,10,03,00,02,14.30
2020,10,03,00,03,14.30
2020,10,03,00,04,14.30
2020,10,03,00,05,14.30
2020,10,03,00,06,14.30
2020,10,03,00,07,14.30
2020,10,03,00,08,14.20
2020,10,03,00,09,14.20
2020,10,03,00,10,14.20
2020,10,03,00,11,14.20
2020,10,03,00,12,14.20
2020,10,03,00,13,14.20
2020,10,03,00,14,14.20
2020,10,03,00,15,14.20
2020,10,03,00,16,14.20
2020,10,03,00,17,14.20
2020,10,03,00,18,14.20
2020,10,03,00,19,14.20
2020,10,03,00,20,14.20
2020,10,03,00,21,14.20
2020,10,03,00,22,14.20
2020,10,03,00,23,14.20
2020,10,03,00,24,14.20
2020,10,03,00,25,14.20
2020,10,03,00,26,14.20
2020,10,03,00,27,14.20
2020,10,03,00,28,14.20
2020,10,03,00,29,14.20
2020,10,03,00,30,14.20
2020,10,03,00,31,14.20
2020,10,03,00,32,14.20
2020,10,03,00,33,14.10
2020,10,03,00,34,14.10
2020,10,03,00,35,14.10
2020,10,03,00,36,14.10
2020,10,03,00,37,14.10
2020,10,03,00,38,14.10
2020,10,03,00,39,14.10
2020,10,03,00,40,14.10
2020,10,03,00,41,14.10
2020,10,03,00,42,14.10
2020,10,03,00,43,14.10
2020,10,03,00,44,14.10
2020,10,03,00,45,14.10
2020,10,03,00,46,14.10
2020,10,03,00,47,14.10
2020,10,03,00,48,14.00
2020,10,03,00,49,14.00
2020,10,03,00,50,14.00
2020,10,03,00,51,14.00
2020,10,03,00,52,14.00
2020,10,03,00,53,14.00
2020,10,03,00,54,14.00
2020,10,03,00,55,14.00
2020,10,03,00,56,14.00
2020,10,03,00,57,14.00
2020,10,03,00,58,14.00
2020,10,03,00,59,14.00
2020,10,03,01,00,14.00
2020,10,03,01,01,14.00
2020,10,03,01,02,14.00
2020,10,03,01,03,14.00
2020,10,03,01,04,14.00
2020,10,03,01,05,14.00
2020,10,03,01,06,14.00
2020,10,03,01,07,14.00
2020,10,03,01,08,13.90
2020,10,03,01,09,13.90
2020,10,03,01,10,13.90
2020,10,03,01,11,13.90
2020,10,03,01,12,13.90
2020,10,03,01,13,13.90
2020,10,03,01,14,13.80
2020,10,03,01,15,13.80
2020,10,03,01,16,13.80
2020,10,03,01,17,13.80
2020,10,03,01,18,13.80
2020,10,03,01,19,13.70
2020,10,03,01,20,13.70
2020,10,03,01,21,13.70
2020,10,03,01,22,13.70
2020,10,03,01,23,13.70
2020,10,03,01,24,13.70
2020,10,03,01,25,13.70
2020,10,03,01,26,13.70
2020,10,03,01,27,13.70
2020,10,03,01,28,13.60
2020,10,03,01,29,13.60
2020,10,03,01,30,13.60
2020,10,03,01,31,13.60
2020,10,03,01,32,13.60
2020,10,03,01,33,13.60
2020,10,03,01,34,13.50
2020,10,03,01,35,13.50
2020,10,03,01,36,13.50
2020,10,03,01,37,13.50
2020,10,03,01,38,13.50
2020,10,03,01,39,13.50
2020,10,03,01,40,13.50
2020,10,03,01,41,13.50
2020,10,03,01,42,13.50
2020,10,03,01,43,13.50
2020,10,03,01,44,13.50
2020,10,03,01,45,13.50
2020,10,03,01,46,13.50
2020,10,03,01,47,13.50
2020,10,03,01,48,13.50
2020,10,03,01,49,13.50
2020,10,03,01,50,13.50
2020,10,03,01,51,13.50
2020,10,03,01,52,13.50
2020,10,03,01,53,13.50
2020,10,03,01,54,13.40
2020,10,03,01,55,13.40
2020,10,03,01,56,13.50
2020,10,03,01,57,13.40
2020,10,03,01,58,13.40
2020,10,03,01,59,13.40
2020,10,03,02,00,13.40
2020,10,03,02,01,13.30
2020,10,03,02,02,13.30
2020,10,03,02,03,13.30
2020,10,03,02,04,13.30
2020,10,03,02,05,13.30
2020,10,03,02,06,13.20
2020,10,03,02,07,13.20
2020,10,03,02,08,13.20
2020,10,03,02,09,13.20
2020,10,03,02,10,13.30
2020,10,03,02,11,13.30
2020,10,03,02,12,13.30
2020,10,03,02,13,13.30
2020,10,03,02,14,13.30
2020,10,03,02,15,13.30
2020,10,03,02,16,13.30
2020,10,03,02,17,13.40
2020,10,03,02,18,13.40
2020,10,03,02,19,13.40
2020,10,03,02,20,13.40
2020,10,03,02,21,13.40
2020,10,03,02,22,13.40
2020,10,03,02,23,13.40
2020,10,03,02,24,13.40
2020,10,03,02,25,13.40
2020,10,03,02,26,13.40
2020,10,03,02,27,13.40
2020,10,03,02,28,13.30
2020,10,03,02,29,13.30
2020,10,03,02,30,13.30
2020,10,03,02,31,13.30
2020,10,03,02,32,13.30
2020,10,03,02,33,13.30
2020,10,03,02,34,13.30
2020,10,03,02,35,13.30
2020,10,03,02,36,13.20
2020,10,03,02,37,13.20
2020,10,03,02,38,13.20
2020,10,03,02,39,13.20
2020,10,03,02,40,13.20
2020,10,03,02,41,13.20
2020,10,03,02,42,13.20
2020,10,03,02,43,13.10
2020,10,03,02,44,13.10
2020,10,03,02,45,13.10
2020,10,03,02,46,13.10
2020,10,03,02,47,13.10
2020,10,03,02,48,13.10
2020,10,03,02,49,13.10
2020,10,03,02,50,13.10
2020,10,03,02,51,13.10
2020,10,03,02,52,13.10
2020,10,03,02,53,13.20
2020,10,03,02,54,13.20
2020,10,03,02,55,13.20
2020,10,03,02,56,13.20
2020,10,03,02,57,13.20
2020,10,03,02,58,13.10
2020,10,03,02,59,13.10
2020,10,03,03,00,13.10
2020,10,03,03,01,13.10
2020,10,03,03,02,13.10
2020,10,03,03,03,13.10
2020,10,03,03,04,13.10
2020,10,03,03,05,13.10
2020,10,03,03,06,13.10
2020,10,03,03,07,13.10
2020,10,03,03,08,13.10
2020,10,03,03,09,13.10
2020,10,03,03,10,13.10
2020,10,03,03,11,13.10
2020,10,03,03,12,13.10
2020,10,03,03,13,13.10
2020,10,03,03,14,13.10
2020,10,03,03,15,13.10
2020,10,03,03,16,13.10
2020,10,03,03,17,13.10
2020,10,03,03,18,13.10
2020,10,03,03,19,13.10
2020,10,03,03,20,13.00
2020,10,03,03,21,13.00
2020,10,03,03,22,13.00
2020,10,03,03,23,13.00
2020,10,03,03,24,13.00
2020,10,03,03,25,12.90
2020,10,03,03,26,12.90
2020,10,03,03,27,12.90
2020,10,03,03,28,12.90
2020,10,03,03,29,12.90
2020,10,03,03,30,12.90
2020,10,03,03,31,12.90
2020,10,03,03,32,12.90
2020,10,03,03,33,12.90
2020,10,03,03,34,12.90
2020,10,03,03,35,12.90
2020,10,03,03,36,12.90
2020,10,03,03,37,12.90
2020,10,03,03,38,12.90
2020,10,03,03,39,12.90
2020,10,03,03,40,12.90
2020,10,03,03,41,12.90
2020,10,03,03,42,12.90
2020,10,03,03,43,12.90
2020,10,03,03,44,12.90
2020,10,03,03,45,12.90
2020,10,03,03,46,12.90
2020,10,03,03,47,12.90
2020,10,03,03,48,12.90
2020,10,03,03,49,12.80
2020,10,03,03,50,12.90
2020,10,03,03,51,12.80
2020,10,03,03,52,12.80
2020,10,03,03,53,12.80
2020,10,03,03,54,12.80
2020,10,03,03,55,12.80
2020,10,03,03,56,12.80
2020,10,03,03,57,12.80
2020,10,03,03,58,12.80
2020,10,03,03,59,12.80
2020,10,03,04,00,12.80
2020,10,03,04,01,12.80
2020,10,03,04,02,12.80
2020,10,03,04,03,12.80
2020,10,03,04,04,12.80
2020,10,03,04,05,12.80
2020,10,03,04,06,12.80
2020,10,03,04,07,12.80
2020,10,03,04,08,12.80
2020,10,03,04,09,12.80
2020,10,03,04,10,12.80
2020,10,03,04,11,12.80
2020,10,03,04,12,12.80
2020,10,03,04,13,12.70
2020,10,03,04,14,12.70
2020,10,03,04,15,12.70
2020,10,03,04,16,12.70
2020,10,03,04,17,12.70
2020,10,03,04,18,12.70
2020,10,03,04,19,12.70
2020,10,03,04,20,12.70
2020,10,03,04,21,12.70
2020,10,03,04,22,12.70
2020,10,03,04,23,12.70
2020,10,03,04,24,12.70
2020,10,03,04,25,12.70
2020,10,03,04,26,12.70
2020,10,03,04,27,12.70
2020,10,03,04,28,12.70
2020,10,03,04,29,12.60
2020,10,03,04,30,12.60
2020,10,03,04,31,12.60
2020,10,03,04,32,12.60
2020,10,03,04,33,12.60
2020,10,03,04,34,12.60
2020,10,03,04,35,12.60
2020,10,03,04,36,12.60
2020,10,03,04,37,12.60
2020,10,03,04,38,12.60
2020,10,03,04,39,12.60
2020,10,03,04,40,12.70
2020,10,03,04,41,12.70
2020,10,03,04,42,12.70
2020,10,03,04,43,12.70
2020,10,03,04,44,12.70
2020,10,03,04,45,12.70
2020,10,03,04,46,12.70
2020,10,03,04,47,12.70
2020,10,03,04,48,12.70
2020,10,03,04,49,12.70
2020,10,03,04,50,12.70
2020,10,03,04,51,12.70
2020,10,03,04,52,12.70
2020,10,03,04,53,12.70
2020,10,03,04,54,12.70
2020,10,03,04,55,12.70
2020,10,03,04,56,12.70
2020,10,03,04,57,12.70
2020,10,03,04,58,12.70
2020,10,03,04,59,12.70
2020,10,03,05,00,12.70
2020,10,03,05,01,12.70
2020,10,03,05,02,12.70
2020,10,03,05,03,12.70
2020,10,03,05,04,12.70
2020,10,03,05,05,12.70
2020,10,03,05,06,12.70
2020,10,03,05,07,12.60
2020,10,03,05,08,12.60
2020,10,03,05,09,12.60
2020,10,03,05,10,12.60
2020,10,03,05,11,12.50
2020,10,03,05,12,12.50
2020,10,03,05,13,12.50
2020,10,03,05,14,12.50
2020,10,03,05,15,12.40
2020,10,03,05,16,12.40
2020,10,03,05,17,12.40
2020,10,03,05,18,12.40
2020,10,03,05,19,12.40
2020,10,03,05,20,12.40
2020,10,03,05,21,12.40
2020,10,03,05,22,12.40
2020,10,03,05,23,12.40
2020,10,03,05,24,12.40
2020,10,03,05,25,12.40
2020,10,03,05,26,12.40
2020,10,03,05,27,12.40
2020,10,03,05,28,12.40
2020,10,03,05,29,12.40
2020,10,03,05,30,12.40
2020,10,03,05,31,12.40
2020,10,03,05,32,12.40
2020,10,03,05,33,12.40
2020,10,03,05,34,12.40
2020,10,03,05,35,12.40
2020,10,03,05,36,12.40
2020,10,03,05,37,12.40
2020,10,03,05,38,12.40
2020,10,03,05,39,12.30
2020,10,03,05,40,12.30
2020,10,03,05,41,12.30
2020,10,03,05,42,12.30
2020,10,03,05,43,12.30
2020,10,03,05,44,12.30
2020,10,03,05,45,12.30
2020,10,03,05,46,12.30
2020,10,03,05,47,12.30
2020,10,03,05,48,12.30
2020,10,03,05,49,12.30
2020,10,03,05,50,12.30
2020,10,03,05,51,12.30
2020,10,03,05,52,12.30
2020,10,03,05,53,12.30
2020,10,03,05,54,12.30
2020,10,03,05,55,12.30
2020,10,03,05,56,12.20
2020,10,03,05,57,12.20
2020,10,03,05,58,12.20
2020,10,03,05,59,12.20
2020,10,03,06,00,12.20
2020,10,03,06,01,12.20
2020,10,03,06,02,12.20
2020,10,03,06,03,12.10
2020,10,03,06,04,12.10
2020,10,03,06,05,12.10
2020,10,03,06,06,12.10
2020,10,03,06,07,12.10
2020,10,03,06,08,12.00
2020,10,03,06,09,12.00
2020,10,03,06,10,11.90
2020,10,03,06,11,11.90
2020,10,03,06,12,11.90
2020,10,03,06,13,11.90
2020,10,03,06,14,11.90
2020,10,03,06,15,11.90
2020,10,03,06,16,11.90
2020,10,03,06,17,11.90
2020,10,03,06,18,11.90
2020,10,03,06,19,11.90
2020,10,03,06,20,12.00
2020,10,03,06,21,12.00
2020,10,03,06,22,12.10
2020,10,03,06,23,12.10
2020,10,03,06,24,12.10
2020,10,03,06,25,12.10
2020,10,03,06,26,12.10
2020,10,03,06,27,12.10
2020,10,03,06,28,12.00
2020,10,03,06,29,12.00
2020,10,03,06,30,12.00
2020,10,03,06,31,12.00
2020,10,03,06,32,12.00
2020,10,03,06,33,12.00
2020,10,03,06,34,12.10
2020,10,03,06,35,12.10
2020,10,03,06,36,12.10
2020,10,03,06,37,12.10
2020,10,03,06,38,12.10
2020,10,03,06,39,12.10
2020,10,03,06,40,12.10
2020,10,03,06,41,12.10
2020,10,03,06,42,12.10
2020,10,03,06,43,12.00
2020,10,03,06,44,12.00
2020,10,03,06,45,12.00
2020,10,03,06,46,12.00
2020,10,03,06,47,12.00
2020,10,03,06,48,12.00
2020,10,03,06,49,12.00
2020,10,03,06,50,12.00
2020,10,03,06,51,12.00
2020,10,03,06,52,12.00
2020,10,03,06,53,12.00
2020,10,03,06,54,12.00
2020,10,03,06,55,12.00
2020,10,03,06,56,12.00
2020,10,03,06,57,12.00
2020,10,03,06,58,11.90
2020,10,03,06,59,11.90
2020,10,03,07,00,11.90
2020,10,03,07,01,11.90
2020,10,03,07,02,11.90
2020,10,03,07,03,11.90
2020,10,03,07,04,11.80
2020,10,03,07,05,11.80
2020,10,03,07,06,11.80
2020,10,03,07,07,11.80
2020,10,03,07,08,11.80
2020,10,03,07,09,11.80
2020,10,03,07,10,11.80
2020,10,03,07,11,11.70
2020,10,03,07,12,11.70
2020,10,03,07,13,11.70
2020,10,03,07,14,11.70
2020,10,03,07,15,11.70
2020,10,03,07,16,11.70
2020,10,03,07,17,11.60
2020,10,03,07,18,11.60
2020,10,03,07,19,11.60
2020,10,03,07,20,11.60
2020,10,03,07,21,11.60
2020,10,03,07,22,11.60
2020,10,03,07,23,11.60
2020,10,03,07,24,11.60
2020,10,03,07,25,11.60
2020,10,03,07,26,11.60
2020,10,03,07,27,11.60
2020,10,03,07,28,11.70
2020,10,03,07,29,11.70
2020,10,03,07,30,11.70
2020,10,03,07,31,11.70
2020,10,03,07,32,11.70
2020,10,03,07,33,11.70
2020,10,03,07,34,11.70
2020,10,03,07,35,11.70
2020,10,03,07,36,11.70
2020,10,03,07,37,11.70
2020,10,03,07,38,11.70
2020,10,03,07,39,11.70
2020,10,03,07,40,11.70
2020,10,03,07,41,11.70
2020,10,03,07,42,11.70
2020,10,03,07,43,11.70
2020,10,03,07,44,11.70
2020,10,03,07,45,11.70
2020,10,03,07,46,11.70
2020,10,03,07,47,11.70
2020,10,03,07,48,11.70
2020,10,03,07,49,11.70
2020,10,03,07,50,11.70
2020,10,03,07,51,11.70
2020,10,03,07,52,11.70
2020,10,03,07,53,11.70
2020,10,03,07,54,11.70
2020,10,03,07,55,11.70
2020,10,03,07,56,11.70
2020,10,03,07,57,11.70
2020,10,03,07,58,11.70
2020,10,03,07,59,11.70
2020,10,03,08,00,11.70
2020,10,03,08,01,11.80
2020,10,03,08,02,11.80
2020,10,03,08,03,11.80
2020,10,03,08,04,11.80
2020,10,03,08,05,11.80
2020,10,03,08,06,11.80
2020,10,03,08,07,11.80
2020,10,03,08,08,11.80
2020,10,03,08,09,11.80
2020,10,03,08,10,11.80
2020,10,03,08,11,11.80
2020,10,03,08,12,11.80
2020,10,03,08,13,11.80
2020,10,03,08,14,11.80
2020,10,03,08,15,11.90
2020,10,03,08,16,11.90
2020,10,03,08,17,11.90
2020,10,03,08,18,11.90
2020,10,03,08,19,11.90
2020,10,03,08,20,12.00
2020,10,03,08,21,12.00
2020,10,03,08,22,12.00
2020,10,03,08,23,12.00
2020,10,03,08,24,12.10
2020,10,03,08,25,12.10
2020,10,03,08,26,12.10
2020,10,03,08,27,12.10
2020,10,03,08,28,12.10
2020,10,03,08,29,12.10
2020,10,03,08,30,12.20
2020,10,03,08,31,12.20
2020,10,03,08,32,12.20
2020,10,03,08,33,12.20
2020,10,03,08,34,12.30
2020,10,03,08,35,12.30
2020,10,03,08,36,12.30
2020,10,03,08,37,12.30
2020,10,03,08,38,12.40
2020,10,03,08,39,12.40
2020,10,03,08,40,12.40
2020,10,03,08,41,12.40
2020,10,03,08,42,12.40
2020,10,03,08,43,12.40
2020,10,03,08,44,12.40
2020,10,03,08,45,12.50
2020,10,03,08,46,12.50
2020,10,03,08,47,12.50
2020,10,03,08,48,12.60
2020,10,03,08,49,12.60
2020,10,03,08,50,12.60
2020,10,03,08,51,12.60
2020,10,03,08,52,12.70
2020,10,03,08,53,12.70
2020,10,03,08,54,12.80
2020,10,03,08,55,12.80
2020,10,03,08,56,12.90
2020,10,03,08,57,13.00
2020,10,03,08,58,13.10
2020,10,03,08,59,13.10
2020,10,03,09,00,13.10
2020,10,03,09,01,13.20
2020,10,03,09,02,13.20
2020,10,03,09,03,13.20
2020,10,03,09,04,13.30
2020,10,03,09,05,13.30
2020,10,03,09,06,13.30
2020,10,03,09,07,13.40
2020,10,03,09,08,13.40
2020,10,03,09,09,13.40
2020,10,03,09,10,13.50
2020,10,03,09,11,13.50
2020,10,03,09,12,13.60
2020,10,03,09,13,13.70
2020,10,03,09,14,13.70
2020,10,03,09,15,13.80
2020,10,03,09,16,13.80
2020,10,03,09,17,13.90
2020,10,03,09,18,14.00
2020,10,03,09,19,14.10
2020,10,03,09,20,14.10
2020,10,03,09,21,14.20
2020,10,03,09,22,14.20
2020,10,03,09,23,14.30
2020,10,03,09,24,14.30
2020,10,03,09,25,14.40
2020,10,03,09,26,14.40
2020,10,03,09,27,14.50
2020,10,03,09,28,14.60
2020,10,03,09,29,14.60
2020,10,03,09,30,14.60
2020,10,03,09,31,14.70
2020,10,03,09,32,14.80
2020,10,03,09,33,14.80
2020,10,03,09,34,14.80
2020,10,03,09,35,14.90
2020,10,03,09,36,14.90
2020,10,03,09,37,15.00
2020,10,03,09,38,15.00
2020,10,03,09,39,15.00
2020,10,03,09,40,15.10
2020,10,03,09,41,15.10
2020,10,03,09,42,15.20
2020,10,03,09,43,15.20
2020,10,03,09,44,15.20
2020,10,03,09,45,15.20
2020,10,03,09,46,15.30
2020,10,03,09,47,15.30
2020,10,03,09,48,15.40
2020,10,03,09,49,15.40
2020,10,03,09,50,15.50
2020,10,03,09,51,15.60
2020,10,03,09,52,15.60
2020,10,03,09,53,15.70
2020,10,03,09,54,15.70
2020,10,03,09,55,15.70
2020,10,03,09,56,15.70
2020,10,03,09,57,15.80
2020,10,03,09,58,15.80
2020,10,03,09,59,15.80
2020,10,03,10,00,15.80
2020,10,03,10,01,15.90
2020,10,03,10,02,15.90
2020,10,03,10,03,16.00
2020,10,03,10,04,16.00
2020,10,03,10,05,16.10
2020,10,03,10,06,16.10
2020,10,03,10,07,16.10
2020,10,03,10,08,16.10
2020,10,03,10,09,16.10
2020,10,03,10,10,16.10
2020,10,03,10,11,16.20
2020,10,03,10,12,16.20
2020,10,03,10,13,16.20
2020,10,03,10,14,16.20
2020,10,03,10,15,16.20
2020,10,03,10,16,16.20
2020,10,03,10,17,16.20
2020,10,03,10,18,16.20
2020,10,03,10,19,16.20
2020,10,03,10,20,16.20
2020,10,03,10,21,16.20
2020,10,03,10,22,16.30
2020,10,03,10,23,16.30
2020,10,03,10,24,16.30
2020,10,03,10,25,16.30
2020,10,03,10,26,16.30
2020,10,03,10,27,16.30
2020,10,03,10,28,16.30
2020,10,03,10,29,16.30
2020,10,03,10,30,16.40
2020,10,03,10,31,16.40
2020,10,03,10,32,16.50
2020,10,03,10,33,16.50
2020,10,03,10,34,16.60
2020,10,03,10,35,16.60
2020,10,03,10,36,16.70
2020,10,03,10,37,16.70
2020,10,03,10,38,16.60
2020,10,03,10,39,16.60
2020,10,03,10,40,16.60
2020,10,03,10,41,16.60
2020,10,03,10,42,16.60
2020,10,03,10,43,16.50
2020,10,03,10,44,16.50
2020,10,03,10,45,16.40
2020,10,03,10,46,16.30
2020,10,03,10,47,16.20
2020,10,03,10,48,16.20
2020,10,03,10,49,16.20
2020,10,03,10,50,16.20
2020,10,03,10,51,16.20
2020,10,03,10,52,16.10
2020,10,03,10,53,16.10
2020,10,03,10,54,16.00
2020,10,03,10,55,15.90
2020,10,03,10,56,15.90
2020,10,03,10,57,15.90
2020,10,03,10,58,15.90
2020,10,03,10,59,15.90
2020,10,03,11,00,16.00
2020,10,03,11,01,16.00
2020,10,03,11,02,16.00
2020,10,03,11,03,16.00
2020,10,03,11,04,16.00
2020,10,03,11,05,16.00
2020,10,03,11,06,15.90
2020,10,03,11,07,15.80
2020,10,03,11,08,15.80
2020,10,03,11,09,15.70
2020,10,03,11,10,15.70
2020,10,03,11,11,15.70
2020,10,03,11,12,15.70
2020,10,03,11,13,15.70
2020,10,03,11,14,15.70
2020,10,03,11,15,15.80
2020,10,03,11,16,15.80
2020,10,03,11,17,16.00
2020,10,03,11,18,16.00
2020,10,03,11,19,16.20
2020,10,03,11,20,16.20
2020,10,03,11,21,16.30
2020,10,03,11,22,16.20
2020,10,03,11,23,16.20
2020,10,03,11,24,16.10
2020,10,03,11,25,16.00
2020,10,03,11,26,15.90
2020,10,03,11,27,15.90
2020,10,03,11,28,15.80
2020,10,03,11,29,15.80
2020,10,03,11,30,15.70
2020,10,03,11,31,15.70
2020,10,03,11,32,15.70
2020,10,03,11,33,15.70
2020,10,03,11,34,15.70
2020,10,03,11,35,15.70
2020,10,03,11,36,15.70
2020,10,03,11,37,15.70
2020,10,03,11,38,15.80
2020,10,03,11,39,15.90
2020,10,03,11,40,15.90
2020,10,03,11,41,16.00
2020,10,03,11,42,16.10
2020,10,03,11,43,16.20
2020,10,03,11,44,16.20
2020,10,03,11,45,16.20
2020,10,03,11,46,16.10
2020,10,03,11,47,16.10
2020,10,03,11,48,16.00
2020,10,03,11,49,16.00
2020,10,03,11,50,15.90
2020,10,03,11,51,15.90
2020,10,03,11,52,15.80
2020,10,03,11,53,15.80
2020,10,03,11,54,15.80
2020,10,03,11,55,15.90
2020,10,03,11,56,15.90
2020,10,03,11,57,16.00
2020,10,03,11,58,16.00
2020,10,03,11,59,16.10
2020,10,03,12,00,16.10
2020,10,03,12,01,16.00
2020,10,03,12,02,16.00
2020,10,03,12,03,15.90
2020,10,03,12,04,15.90
2020,10,03,12,05,15.90
2020,10,03,12,06,15.90
2020,10,03,12,07,15.90
2020,10,03,12,08,16.00
2020,10,03,12,09,16.00
2020,10,03,12,10,15.90
2020,10,03,12,11,15.80
2020,10,03,12,12,15.80
2020,10,03,12,13,15.80
2020,10,03,12,14,15.80
2020,10,03,12,15,15.80
2020,10,03,12,16,15.90
2020,10,03,12,17,15.90
2020,10,03,12,18,15.90
2020,10,03,12,19,15.90
2020,10,03,12,20,15.90
2020,10,03,12,21,16.00
2020,10,03,12,22,16.10
2020,10,03,12,23,16.20
2020,10,03,12,24,16.20
2020,10,03,12,25,16.30
2020,10,03,12,26,16.40
2020,10,03,12,27,16.50
2020,10,03,12,28,16.50
2020,10,03,12,29,16.50
2020,10,03,12,30,16.50
2020,10,03,12,31,16.50
2020,10,03,12,32,16.60
2020,10,03,12,33,16.70
2020,10,03,12,34,16.70
2020,10,03,12,35,16.80
2020,10,03,12,36,16.80
2020,10,03,12,37,16.90
2020,10,03,12,38,16.90
2020,10,03,12,39,16.90
2020,10,03,12,40,16.90
2020,10,03,12,41,16.90
2020,10,03,12,42,16.90
2020,10,03,12,43,16.90
2020,10,03,12,44,17.00
2020,10,03,12,45,17.00
2020,10,03,12,46,17.10
2020,10,03,12,47,17.20
2020,10,03,12,48,17.30
2020,10,03,12,49,17.40
2020,10,03,12,50,17.40
2020,10,03,12,51,17.30
2020,10,03,12,52,17.30
2020,10,03,12,53,17.30
2020,10,03,12,54,17.20
2020,10,03,12,55,17.30
2020,10,03,12,56,17.20
2020,10,03,12,57,17.10
2020,10,03,12,58,17.10
2020,10,03,12,59,17.10
2020,10,03,13,00,17.10
2020,10,03,13,01,17.10
2020,10,03,13,02,17.10
2020,10,03,13,03,17.10
2020,10,03,13,04,17.20
2020,10,03,13,05,17.30
2020,10,03,13,06,17.20
2020,10,03,13,07,17.10
2020,10,03,13,08,17.00
2020,10,03,13,09,17.00
2020,10,03,13,10,16.90
2020,10,03,13,11,17.00
2020,10,03,13,12,17.00
2020,10,03,13,13,17.10
2020,10,03,13,14,17.00
2020,10,03,13,15,17.00
2020,10,03,13,16,16.90
2020,10,03,13,17,16.90
2020,10,03,13,18,16.90
2020,10,03,13,19,16.90
2020,10,03,13,20,16.90
2020,10,03,13,21,16.90
2020,10,03,13,22,16.90
2020,10,03,13,23,16.90
2020,10,03,13,24,17.00
2020,10,03,13,25,17.00
2020,10,03,13,26,17.10
2020,10,03,13,27,17.10
2020,10,03,13,28,17.20
2020,10,03,13,29,17.20
2020,10,03,13,30,17.30
2020,10,03,13,31,17.40
2020,10,03,13,32,17.40
2020,10,03,13,33,17.50
2020,10,03,13,34,17.50
2020,10,03,13,35,17.50
2020,10,03,13,36,17.60
2020,10,03,13,37,17.60
2020,10,03,13,38,17.70
2020,10,03,13,39,17.80
2020,10,03,13,40,17.80
2020,10,03,13,41,17.90
2020,10,03,13,42,17.90
2020,10,03,13,43,18.00
2020,10,03,13,44,18.00
2020,10,03,13,45,18.10
2020,10,03,13,46,18.10
2020,10,03,13,47,18.00
2020,10,03,13,48,18.00
2020,10,03,13,49,18.00
2020,10,03,13,50,18.00
2020,10,03,13,51,18.00
2020,10,03,13,52,18.00
2020,10,03,13,53,18.10
2020,10,03,13,54,18.10
2020,10,03,13,55,18.10
2020,10,03,13,56,18.20
2020,10,03,13,57,18.30
2020,10,03,13,58,18.40
2020,10,03,13,59,18.40
2020,10,03,14,00,18.50
2020,10,03,14,01,18.50
2020,10,03,14,02,18.50
2020,10,03,14,03,18.50
2020,10,03,14,04,18.50
2020,10,03,14,05,18.50
2020,10,03,14,06,18.50
2020,10,03,14,07,18.50
2020,10,03,14,08,18.60
2020,10,03,14,09,18.60
2020,10,03,14,10,18.70
2020,10,03,14,11,18.80
2020,10,03,14,12,18.80
2020,10,03,14,13,18.90
2020,10,03,14,14,18.90
2020,10,03,14,15,19.00
2020,10,03,14,16,19.00
2020,10,03,14,17,19.00
2020,10,03,14,18,19.10
2020,10,03,14,19,19.10
2020,10,03,14,20,19.10
2020,10,03,14,21,19.20
2020,10,03,14,22,19.20
2020,10,03,14,23,19.20
2020,10,03,14,24,19.20
2020,10,03,14,25,19.20
2020,10,03,14,26,19.30
2020,10,03,14,27,19.30
2020,10,03,14,28,19.40
2020,10,03,14,29,19.40
2020,10,03,14,30,19.40
2020,10,03,14,31,19.40
2020,10,03,14,32,19.40
2020,10,03,14,33,19.40
2020,10,03,14,34,19.40
2020,10,03,14,35,19.50
2020,10,03,14,36,19.50
2020,10,03,14,37,19.60
2020,10,03,14,38,19.60
2020,10,03,14,39,19.60
2020,10,03,14,40,19.60
2020,10,03,14,41,19.60
2020,10,03,14,42,19.60
2020,10,03,14,43,19.50
2020,10,03,14,44,19.40
2020,10,03,14,45,19.40
2020,10,03,14,46,19.30
2020,10,03,14,47,19.30
2020,10,03,14,48,19.30
2020,10,03,14,49,19.30
2020,10,03,14,50,19.20
2020,10,03,14,51,19.10
2020,10,03,14,52,18.90
2020,10,03,14,53,18.70
2020,10,03,14,54,18.60
2020,10,03,14,55,18.50
2020,10,03,14,56,18.50
2020,10,03,14,57,18.60
2020,10,03,14,58,18.60
2020,10,03,14,59,18.50
2020,10,03,15,00,18.50
2020,10,03,15,01,18.40
2020,10,03,15,02,18.50
2020,10,03,15,03,18.50
2020,10,03,15,04,18.60
2020,10,03,15,05,18.60
2020,10,03,15,06,18.60
2020,10,03,15,07,18.60
2020,10,03,15,08,18.50
2020,10,03,15,09,18.50
2020,10,03,15,10,18.40
2020,10,03,15,11,18.40
2020,10,03,15,12,18.40
2020,10,03,15,13,18.40
2020,10,03,15,14,18.40
2020,10,03,15,15,18.40
2020,10,03,15,16,18.40
2020,10,03,15,17,18.40
2020,10,03,15,18,18.30
2020,10,03,15,19,18.20
2020,10,03,15,20,18.20
2020,10,03,15,21,18.20
2020,10,03,15,22,18.20
2020,10,03,15,23,18.20
2020,10,03,15,24,18.20
2020,10,03,15,25,18.10
2020,10,03,15,26,18.10
2020,10,03,15,27,18.00
2020,10,03,15,28,17.90
2020,10,03,15,29,17.80
2020,10,03,15,30,17.80
2020,10,03,15,31,17.80
2020,10,03,15,32,17.80
2020,10,03,15,33,17.90
2020,10,03,15,34,17.90
2020,10,03,15,35,18.00
2020,10,03,15,36,18.10
2020,10,03,15,37,18.20
2020,10,03,15,38,18.20
2020,10,03,15,39,18.10
2020,10,03,15,40,18.10
2020,10,03,15,41,18.00
2020,10,03,15,42,18.00
2020,10,03,15,43,17.90
2020,10,03,15,44,17.90
2020,10,03,15,45,17.90
2020,10,03,15,46,17.90
2020,10,03,15,47,17.80
2020,10,03,15,48,17.80
2020,10,03,15,49,17.80
2020,10,03,15,50,17.80
2020,10,03,15,51,17.80
2020,10,03,15,52,17.80
2020,10,03,15,53,17.80
2020,10,03,15,54,17.70
2020,10,03,15,55,17.70
2020,10,03,15,56,17.60
2020,10,03,15,57,17.60
2020,10,03,15,58,17.50
2020,10,03,15,59,17.50
2020,10,03,16,00,17.40
2020,10,03,16,01,17.40
2020,10,03,16,02,17.40
2020,10,03,16,03,17.30
2020,10,03,16,04,17.40
2020,10,03,16,05,17.40
2020,10,03,16,06,17.40
2020,10,03,16,07,17.50
2020,10,03,16,08,17.60
2020,10,03,16,09,17.70
2020,10,03,16,10,17.80
2020,10,03,16,11,17.80
2020,10,03,16,12,17.90
2020,10,03,16,13,17.80
2020,10,03,16,14,17.80
2020,10,03,16,15,17.80
2020,10,03,16,16,17.90
2020,10,03,16,17,17.90
2020,10,03,16,18,18.00
2020,10,03,16,19,18.00
2020,10,03,16,20,18.10
2020,10,03,16,21,18.10
2020,10,03,16,22,18.10
2020,10,03,16,23,18.10
2020,10,03,16,24,18.10
2020,10,03,16,25,18.10
2020,10,03,16,26,18.20
2020,10,03,16,27,18.30
2020,10,03,16,28,18.40
2020,10,03,16,29,18.40
2020,10,03,16,30,18.50
2020,10,03,16,31,18.60
2020,10,03,16,32,18.60
2020,10,03,16,33,18.70
2020,10,03,16,34,18.80
2020,10,03,16,35,18.80
2020,10,03,16,36,18.80
2020,10,03,16,37,18.80
2020,10,03,16,38,18.80
2020,10,03,16,39,18.90
2020,10,03,16,40,18.90
2020,10,03,16,41,19.00
2020,10,03,16,42,19.00
2020,10,03,16,43,19.10
2020,10,03,16,44,19.20
2020,10,03,16,45,19.20
2020,10,03,16,46,19.30
2020,10,03,16,47,19.30
2020,10,03,16,48,19.40
2020,10,03,16,49,19.40
2020,10,03,16,50,19.40
2020,10,03,16,51,19.40
2020,10,03,16,52,19.30
2020,10,03,16,53,19.30
2020,10,03,16,54,19.30
2020,10,03,16,55,19.30
2020,10,03,16,56,19.30
2020,10,03,16,57,19.30
2020,10,03,16,58,19.30
2020,10,03,16,59,19.30
2020,10,03,17,00,19.30
2020,10,03,17,01,19.30
2020,10,03,17,02,19.20
2020,10,03,17,03,19.20
2020,10,03,17,04,19.20
2020,10,03,17,05,19.10
2020,10,03,17,06,19.00
2020,10,03,17,07,18.90
2020,10,03,17,08,18.80
2020,10,03,17,09,18.70
2020,10,03,17,10,18.60
2020,10,03,17,11,18.60
2020,10,03,17,12,18.50
2020,10,03,17,13,18.50
2020,10,03,17,14,18.40
2020,10,03,17,15,18.40
2020,10,03,17,16,18.30
2020,10,03,17,17,18.30
2020,10,03,17,18,18.30
2020,10,03,17,19,18.20